Lid_Strength_Index
2 2 1 1 2 2 2 2 1 1 1 1 1 1 1 1 1 1 4 3 6 8 5 4 4 6 6 6 9 7 9 9 10 12 12 11 12 11 11 10 13 14 13 14 13 16 17 7 7 12 10 7 6 6
2 1 1 1 2 2 1 1 1 1 1 1 1 1 1 1 1 1 4 2 3 7 7 3 4 2 3 3 6 6 7 8 7 9 9 9 12 10 11 13 8 12 11 14 11 11 7 6 7 5 5 6 6 6
1 1 1 1 1 0 0 0 0 1 0 0 1 1 1 1 1 1 3 3 5 8 6 6 7 3 1 2 1 7 6 5 6 4 7 8 11 9 12 11 9 8 6 9 9 8 7 7 5 6 5 5 5 4
2 1 1 1 0 0 0 0 0 0 0 0 0 0 0 0 0 1 3 2 3 5 8 6 3 4 1 2 2 2 4 4 4 5 7 9 10 7 9 9 9 7 7 8 8 7 6 6 5 5 6 5 5 4
1 1 1 1 0 0 0 0 0 0 0 0 0 0 0 0 0 1 1 2 1 4 8 6 3 3 2 2 3 3 4 4 5 8 9 9 7 7 7 8 9 6 8 9 10 8 8 7 5 4 5 6 7 6
1 1 1 0 1 1 0 0 0 0 0 0 0 0 0 0 0 2 7 3 1 1 6 9 3 4 3 3 3 4 4 5 5 8 8 6 5 7 10 10 8 8 8 7 8 7 6 5 4 5 6 6 8 8
1 1 1 1 1 1 1 1 1 1 0 0 0 0 0 0 2 4 5 3 0 -0 5 8 8 4 3 3 3 4 4 5 6 7 8 7 6 6 10 12 11 10 10 8 9 8 7 7 9 8 7 6 8 9
1 1 1 1 1 1 1 1 0 0 0 0 0 0 1 1 1 3 1 1 1 4 4 9 8 7 3 6 7 4 6 6 7 7 6 7 6 6 12 12 12 11 10 9 10 10 9 9 9 10 8 8 9 11
1 1 1 1 1 1 1 1 1 0 0 0 1 1 2 3 4 3 1 1 -0 3 7 9 10 11 4 7 6 6 6 10 7 9 9 8 11 14 15 14 13 13 13 13 11 10 10 11 12 12 12 10 10 12
2 1 1 1 1 1 1 1 1 1 1 1 2 4 7 3 1 1 3 5 5 4 5 8 6 10 7 8 9 9 8 10 12 9 8 11 14 13 13 13 13 13 13 12 13 12 12 12 13 14 14 13 13 13
2 2 2 2 1 1 1 1 1 1 1 2 6 6 3 1 2 5 8 8 8 9 7 7 7 9 6 10 10 9 10 10 13 11 11 13 15 14 13 13 13 13 13 13 13 12 12 13 13 14 15 15 15 15
2 2 2 2 1 1 1 1 1 2 2 3 5 4 5 7 7 9 10 9 9 11 8 9 9 9 7 6 9 8 11 10 14 11 13 15 15 14 13 14 13 13 13 14 14 14 13 13 13 14 15 16 17 17
2 2 3 3 3 3 2 1 2 2 3 4 7 10 10 12 14 14 14 12 12 11 10 9 10 8 7 6 9 10 12 13 10 15 17 16 15 14 14 14 14 14 14 14 15 14 15 15 15 16 17 17 18 19
2 2 3 3 4 4 2 3 4 5 6 10 12 16 15 17 15 15 14 13 12 12 11 9 8 9 8 10 10 12 13 11 15 17 19 16 16 15 15 15 15 16 16 16 16 16 17 17 18 18 18 18 19 20
3 3 4 4 4 5 6 6 7 7 9 13 13 17 16 15 14 14 13 12 13 13 11 8 9 9 12 13 13 13 15 18 17 18 17 16 16 16 16 16 16 17 17 17 17 18 18 18 18 18 18 18 19 19
3 3 4 5 5 6 6 7 7 8 11 14 16 16 15 14 15 15 15 14 13 13 10 9 11 13 16 15 17 18 18 20 19 17 16 15 16 16 16 16 17 17 17 17 17 18 18 18 19 19 18 19 20 21
3 4 4 5 6 6 7 8 10 13 14 16 17 15 15 15 17 16 15 15 13 12 13 12 16 17 14 17 19 18 19 18 17 16 16 16 16 17 17 17 17 17 18 18 18 18 18 18 18 18 20 20 20 20
4 4 4 4 4 7 8 9 12 14 17 15 17 16 16 16 16 16 15 14 13 13 14 16 14 18 19 20 19 17 17 17 16 16 17 17 17 17 17 17 18 18 18 18 18 18 18 19 20 20 20 20 21 21
4 4 4 5 5 7 11 11 11 16 16 15 15 15 15 16 16 16 15 14 13 13 14 16 19 20 20 18 18 17 16 16 17 17 17 17 17 18 18 18 17 18 18 18 19 19 19 19 19 19 19 19 20 20
4 5 5 5 5 9 12 12 10 14 16 16 15 16 16 16 15 15 16 15 16 17 19 20 20 20 19 18 16 16 16 16 16 18 18 17 16 16 16 16 16 16 16 16 17 17 17 18 19 19 18 19 19 20
5 5 5 5 7 8 11 12 13 13 14 15 14 14 16 15 16 17 18 16 18 20 20 19 19 18 17 16 15 15 16 15 16 15 17 17 16 16 16 15 15 15 16 16 17 18 17 18 18 18 18 19 19 20
6 6 6 6 9 10 11 10 12 12 13 14 14 15 16 17 17 17 16 19 20 19 18 18 18 17 17 18 17 16 16 16 16 16 16 16 16 16 16 16 16 16 17 17 17 17 18 18 18 18 18 19 19 19
7 7 9 9 12 12 13 9 13 13 16 15 14 17 18 18 17 15 19 19 18 16 16 16 17 16 17 16 16 16 15 15 16 16 16 16 16 15 16 16 15 16 17 17 16 17 18 18 18 18 18 18 18 19
10 14 15 14 13 16 13 15 13 15 14 16 17 19 18 17 15 17 20 19 17 16 16 16 16 16 16 16 16 16 16 15 16 16 15 15 16 16 16 16 15 15 15 15 15 16 16 17 18 17 17 18 18 19
14 18 16 17 15 17 18 18 17 16 18 17 18 19 19 16 20 21 21 19 18 18 17 16 16 16 17 17 17 17 16 15 16 17 16 15 15 15 16 16 16 15 14 15 16 16 17 17 17 17 17 17 18 19
20 19 18 17 17 17 17 19 18 18 18 20 20 20 18 20 22 23 20 18 18 17 17 16 16 17 17 17 17 17 17 15 15 16 17 15 15 14 14 15 15 16 15 14 15 16 17 17 17 18 18 19 20 18
20 20 18 17 16 17 18 18 18 18 20 20 20 21 20 24 24 21 18 17 17 16 15 15 15 15 17 17 18 17 16 16 16 16 15 15 15 15 14 14 16 15 14 15 14 14 16 17 17 17 17 17 17 17
19 19 21 22 21 20 22 21 21 22 21 20 20 24 23 23 22 18 17 16 16 16 16 17 16 16 17 17 16 16 16 16 16 15 15 15 15 15 16 16 17 18 16 16 15 15 15 16 16 17 17 16 17 17
21 19 20 26 23 22 23 22 21 20 20 19 21 22 22 20 18 17 16 15 15 15 16 17 18 17 17 17 16 15 15 15 17 19 20 16 16 16 16 16 16 16 15 15 18 17 17 16 16 16 19 16 16 17
21 18 22 24 24 24 23 21 21 21 20 19 19 19 20 19 18 16 15 15 15 16 17 17 17 16 16 15 16 17 17 17 17 16 16 16 16 16 16 15 15 16 15 14 15 16 16 17 18 18 17 17 17 17
18 18 20 21 22 21 21 22 20 20 20 20 19 19 20 19 18 18 18 17 17 18 17 17 17 17 16 16 15 16 17 18 20 20 18 17 16 16 16 17 16 16 15 16 16 16 16 17 17 17 18 18 19 20
21 21 21 23 22 20 20 20 19 19 19 19 20 20 20 18 20 18 18 17 17 17 19 17 15 15 17 17 19 18 21 18 18 18 19 17 17 18 17 17 18 17 17 17 17 17 19 19 18 18 19 19 19 20
20 19 20 20 21 21 21 20 20 21 20 20 21 21 21 19 20 18 19 19 17 15 16 16 16 17 19 18 17 18 18 18 21 20 21 22 22 20 18 17 18 18 19 18 18 19 21 21 20 20 20 21 21 21